Regional Weather Roundup
Issued by NWS

Home | Current Version | Previous Version | Text Only | Print | Product List | Glossary Off
Versions: 1 2 3 4 5 6 7 8 9 10 11 12 13 14 15 16 17 18 19 20 21 22 23 24 25 26 27 28 29 30 31 32 33 34 35 36 37 38 39 40 41 42 43 44 45 46 47 48 49 50

000
ASUS43 KLOT 020810
RWRIL

ILLINOIS REGIONAL WEATHER ROUNDUP
NATIONAL WEATHER SERVICE CHICAGO/ROMEOVILLE IL
200 AM CST MON MAR 02 2015

NOTE: "FAIR" INDICATES FEW OR NO CLOUDS BELOW 12,000 FEET WITH NO
SIGNIFICANT WEATHER AND/OR OBSTRUCTIONS TO VISIBILITY.

* THESE STATIONS ARE NOT UNDER NWS QUALITY CONTROL. THEY ALSO MAY NOT
  REPORT WEATHER SUCH AS PRECIPITATION OR FOG.

ILZ001-002-007-009-015-016-024-020900-
NORTHWEST ILLINOIS

CITY           SKY/WX    TMP DP  RH WIND       PRES   REMARKS
MOLINE         PTCLDY     7   2  80 W3        30.47R
STERLING*      PTCLDY    10   7  85 NW7       30.44S WCI   0
SAVANNA*       CLEAR     13   9  82 CALM      30.46R
$$

ILZ003-004-008-010-011-017-018-020900-
NORTH CENTRAL ILLINOIS

CITY           SKY/WX    TMP DP  RH WIND       PRES   REMARKS
ROCKFORD       CLEAR     15   7  70 W7        30.43R WCI   5
FREEPORT*      CLEAR     13   8  78 W7        30.43S WCI   3
ROCHELLE*      PTCLDY     5   2  90 CALM      30.43S
DE KALB*       CLEAR     13   7  78 W12       30.41R WCI  -1
PERU*          PTCLDY    15   9  78 W8        30.46R WCI   4
$$

ILZ005-006-012>014-019>023-020900-
NORTHEAST ILLINOIS

CITY           SKY/WX    TMP DP  RH WIND       PRES   REMARKS
CHICAGO-OHARE  PTCLDY    17   8  67 W9        30.39R WCI   6
CHICAGO-MIDWAY CLEAR     19   9  65 W7        30.41R WCI  10
AURORA         CLEAR      8   2  76 W6        30.43R WCI  -2
LANSING*       CLEAR     17   9  73 W5        30.42S WCI   9
JOLIET*        PTCLDY    12   6  77 W3        30.44S
WAUKEGAN       CLEAR     16   7  67 VRB5      30.38R WCI   9
DUPAGE AIRPORT CLEAR     14   7  73 W10       30.40R WCI   1
KANKAKEE*      PTCLDY     7   4  85 W6        30.45S WCI  -3
WHEELING       CLEAR     18   8  65 W6        30.41R WCI  10
MORRIS*        PTCLDY     5   2  89 W8        30.44R WCI  -9
ROMEOVILLE*    CLEAR     13   7  77 W5        30.43R WCI   5
NORTHERLY ISL    N/A     20  10  65 W12         N/A  WCI   8
$$

LMZ740>746-020900-
SOUTHERN LAKE MICHIGAN

STATION/POSITION SKY/WX   TEMP    WIND        PRES    VSBY  WAVE
                          AIR SEA DIR/SP/G                  HT/PER
                          (F)     (DEG/KT/KT) (MB)    (MI)  (FT/S)
WAUKEGAN HARBOR            18     260/  9/ 15   N/A
HARRISON CRIB              20     270/ 19/ 22   N/A
BURNHAM HARBOR             20     270/ 12/ 13   N/A
CALUMET HARBOR             19     260/  7/ 10 1028.5R
MICHIGAN CITY              18     250/  9/ 12   N/A
$$

ILZ025>027-034>036-040-047-049-050-058-095>099-020900-
WEST-CENTRAL ILLINOIS

CITY           SKY/WX    TMP DP  RH WIND       PRES   REMARKS
QUINCY         CLOUDY    23  17  78 CALM      30.50R
GALESBURG*     CLOUDY    19  14  82 SW5       30.47S WCI  12
MACOMB*        CLOUDY    17  14  90 W6        30.51S WCI   8
JACKSONVILLE*  MOCLDY    18  16  90 SW5       30.51R WCI  11
PITTSFIELD*    PTCLDY    21  17  86 W5        30.52R WCI  14
$$

ILZ028>032-037-038-041>044-048-051>054-059>061-020900-
CENTRAL ILLINOIS

CITY           SKY/WX    TMP DP  RH WIND       PRES   REMARKS
PONTIAC        MOCLDY    14  10  85 W6        30.48R WCI   5
BLOOMINGTON    CLOUDY    20  14  77 W9        30.47R WCI   9
DECATUR        MOCLDY    21  16  81 NW7       30.48R WCI  12
PEORIA         CLOUDY    21  13  71 CALM      30.49R
LACON*         MOCLDY    17   9  73 SW5       30.47R WCI   9
LINCOLN*       MOCLDY    23  18  80 W3        30.51S
SPRINGFIELD    MOCLDY    13   9  84 CALM      30.50S
TAYLORVILLE    MOCLDY    14  12  92 CALM      30.50S
$$

ILZ033-039-045-046-055>057-062-063-020900-
EAST-CENTRAL ILLINOIS

CITY           SKY/WX    TMP DP  RH WIND       PRES   REMARKS
CHAMPAIGN      MOCLDY    12   9  87 W6        30.47R WCI   3
DANVILLE*      PTCLDY    16  10  79 W7        30.43R WCI   6
RANTOUL*       MOCLDY    15  12  85 W6        30.46R WCI   7
MATTOON        PTCLDY    20  14  77 NW12      30.47R WCI   8
PARIS*         MOCLDY    19  15  86 NW9       30.48R WCI   7
$$

ILZ079-100>102-020900-
SOUTHWEST ILLINOIS

CITY           SKY/WX    TMP DP  RH WIND       PRES   REMARKS
ALTON          PTCLDY    17  15  94 NW3       30.52S FOG
BELLEVILLE     MOCLDY    16  14  93 NW2       30.51S FOG
CAHOKIA*       MOCLDY    14  12  92 CALM      30.53R FOG
SPARTA*        PTCLDY    22  20  92 NW3       30.52R
$$

ILZ064>066-069>071-074>076-080>082-084>086-088>090-092>094-020900-
SOUTH-CENTRAL ILLINOIS

CITY           SKY/WX    TMP DP  RH WIND       PRES   REMARKS
CARBONDALE     PTCLDY    26  22  84 N7        30.51R WCI  18
CAIRO*         CLEAR     33  26  76 N9        30.49R WCI  25
EFFINGHAM*     PTCLDY    17  14  88 W5        30.51R WCI  10
MARION         CLEAR     28  23  80 N5        30.50R WCI  23
MT. VERNON     PTCLDY    10   5  79 CALM      30.50R
CENTRALIA*     FOG       15  13  92 NW3       30.50S VSB 1/4
SALEM*         FOG       17  14  89 CALM      30.51R VSB 1/4
METROPOLIS*    CLEAR     30  25  82 N7        30.48R WCI  23
$$

ILZ067-068-072-073-078-083-087-091-020900-
SOUTHEAST ILLINOIS

CITY           SKY/WX    TMP DP  RH WIND       PRES   REMARKS
LAWRENCEVILLE  PTCLDY    19  15  84 NW5       30.50R WCI  12
FLORA*         PTCLDY    20  18  92 NW7       30.51R WCI  11
FAIRFIELD*     PTCLDY    22  19  87 CALM      30.50R
HARRISBURG*    CLEAR     27  24  85 N8        30.51R WCI  19
ROBINSON*      PTCLDY    15  14  95 NW5       30.50R WCI   8
CARMI*         CLEAR     28  25  89 NW10      30.49R WCI  18
$$

ABBREVIATIONS USED IN REMARKS
   TC - TEMPERATURE IN CELSIUS
  WCI - WIND CHILL INDEX
   HX - HEAT INDEX
  VSB - VISIBILITY
$$



USA.gov is the U.S. government's official web portal to all federal, state and local government web resources and services.